SAVONLINNA current weather conditions

sailwx.info

Wind from 220 at 5 knots

Air temperature 2.0° C
Visibility: greater than 5.4 NM
Dewpoint -1.0° C

Last reported at 2015-Mar-05 14:20 UTC.
Time now 2015-Mar-05 16:09 UTC

Location: N 61°57' E 028°57'.
View on Google Maps.

See reports from other nearby stations

  
Tides and Currents Weather Stations Pressure Air Temp Water Temp Dewpoint Dewpoint Depression Visibility Wind Speed Wind Dir Waves Ship Positions
date/time (UTC)wind fromknots sea level pressurealtimeterstation pressurevisibilityair tempwater tempwave heightnotes
2015-Mar-05 15:20 200 2 1.0
2015-Mar-05 14:50 190 3 5.4 1.0
2015-Mar-05 14:20 220 5 5.4 2.0
2015-Mar-05 13:50 230 5 5.4 2.0 Light precipitation showers.
2015-Mar-05 13:20 200 4 5.4 2.0 Light precipitation showers.
2015-Mar-05 12:50 200 7 5.4 2.0
2015-Mar-05 12:20 210 3 5.4 2.0
2015-Mar-05 11:50 210 3 5.4 2.0
2015-Mar-05 11:20 240 5 5.4 2.0
2015-Mar-05 10:50 240 5 5.4 2.0
2015-Mar-05 10:20 230 5 5.4 1.0 Light rain showers.
2015-Mar-05 09:50 200 5 4.9 1.0 Light rain showers.
2015-Mar-05 09:20 190 6 5.4 1.0
2015-Mar-05 08:50 190 5 2.0 1.0 Light precipitation.
2015-Mar-05 08:20 180 4 5.4 1.0
2015-Mar-05 07:50 190 4 5.4 1.0 Light rain showers.
2015-Mar-05 07:20 170 5 5.4 1.0
2015-Mar-05 06:50 180 5 5.4 1.0 Light snow showers.
2015-Mar-05 06:20 170 5 5.4 1.0
2015-Mar-05 05:50 180 6 5.4-0.0
2015-Mar-05 05:20 180 5 5.4-0.0
2015-Mar-05 04:50 170 5 5.4-0.0
2015-Mar-05 04:20 170 5 5.4-0.0
2015-Mar-05 03:50 180 4 5.4-0.0
2015-Mar-05 03:20 180 6 5.4-0.0 Light snow grains.
2015-Mar-05 02:50 170 6 3.8-0.0 Light rain.
2015-Mar-05 02:20 160 5 4.3-0.0 Light rain.
2015-Mar-05 01:50 160 5 4.3-0.0 Light rain.
2015-Mar-05 01:20 160 6 5.4 1.0 Light rain.
2015-Mar-05 00:50 170 6 3.8 1.0 Light rain.
2015-Mar-05 00:20 160 7 3.8 1.0 Light rain.
2015-Mar-04 23:50 150 7 4.9 1.0 Light rain.
2015-Mar-04 23:20 160 7 4.3 1.0 Light rain.
2015-Mar-04 22:50 170 7 4.3 1.0 Light rain.
2015-Mar-04 22:20 160 7 5.4 1.0
2015-Mar-04 21:50 160 7 5.4 1.0
2015-Mar-04 21:20 170 7 5.4 1.0
2015-Mar-04 20:50 170 7 5.4 1.0
2015-Mar-04 20:20 170 6 5.4 1.0 Light snow grains.
2015-Mar-04 19:50 170 7 5.4 1.0 Light snow grains.
2015-Mar-04 19:20 160 7 5.4 1.0 Light rain.
2015-Mar-04 18:50 160 6 3.8 1.0 Light rain.
2015-Mar-04 18:20 160 6 5.4 1.0 Light rain showers.
2015-Mar-04 17:50 150 5 5.4 1.0 Light rain showers.
2015-Mar-04 17:20 170 6 5.4 1.0 Light rain showers.
2015-Mar-04 16:50 160 6 5.4 1.0 Light rain showers.
2015-Mar-04 16:20 150 6 5.4 1.0 Light rain showers.
2015-Mar-04 15:50 160 7 5.4 1.0 Light rain showers.
2015-Mar-04 15:20 160 6 5.4 1.0 Light rain showers.
2015-Mar-04 14:50 160 7 5.4 1.0 Light rain.
2015-Mar-04 14:20 160 7 5.4 1.0
2015-Mar-04 13:50 150 6 5.4 1.0
2015-Mar-04 13:20 150 7 5.4 1.0
2015-Mar-04 12:50 150 8 5.4 1.0 Light snow showers.
2015-Mar-04 12:20 140 8 5.4 1.0 Light snow showers.
2015-Mar-04 11:50 140 9 5.4 2.0
2015-Mar-04 11:20 130 7 5.4 1.0
2015-Mar-04 10:50 130 8 5.4 2.0
2015-Mar-04 10:20 130 9 5.4 2.0 Light rain showers.
2015-Mar-04 09:50 140 8 5.4 2.0
2015-Mar-04 09:20 130 7 5.4 2.0
2015-Mar-04 08:50 120 8 5.4 2.0
2015-Mar-04 08:20 130 9 5.4 1.0
2015-Mar-04 07:50 120 9 5.4 1.0
2015-Mar-04 07:29 120 10 5.4 1.0
2015-Mar-04 07:20 120 11 5.4 1.0
2015-Mar-04 06:50 110 10 5.4 1.0 Light rain.
2015-Mar-04 06:20 110 10 5.4 1.0 Light snow rain.
2015-Mar-04 05:50 110 11 5.4 1.0 Light rain.
2015-Mar-04 04:50 110 11 5.4 1.0 Light drizzle.
2015-Mar-04 04:20 110 11 5.4 1.0 Light rain.
2015-Mar-04 03:50 100 12 5.4 1.0
2015-Mar-04 03:20 100 10 5.4 1.0
2015-Mar-04 02:50 110 10 5.4 1.0
2015-Mar-04 02:20 100 11 5.4 1.0
2015-Mar-04 01:50 100 12 5.4 1.0
2015-Mar-04 01:20 100 11 5.4 1.0 Light rain showers.
2015-Mar-04 00:50 100 11 5.4 1.0
2015-Mar-04 00:20 100 11 5.4 1.0
2015-Mar-03 23:50 100 11 5.4 1.0
2015-Mar-03 23:20 100 11 5.4 1.0
2015-Mar-03 22:50 100 11 5.4 1.0 Light precipitation.
2015-Mar-03 22:20 100 10 5.4 1.0
2015-Mar-03 21:50 100 9 5.4 1.0
2015-Mar-03 21:20 100 10 5.4 1.0
2015-Mar-03 20:50 100 10 5.4 1.0
2015-Mar-03 20:20 110 10 5.4 1.0
2015-Mar-03 19:50 100 8 5.4 1.0
2015-Mar-03 19:20 100 9 5.4 1.0
2015-Mar-03 18:50 100 9 5.4-0.0 Light rain showers.
2015-Mar-03 18:20 100 9 2.4-0.0 Light rain snow.
2015-Mar-03 17:50 100 10 1.0-0.0 Light rain snow.
2015-Mar-03 17:20 100 10 1.2-0.0 Light rain snow.
2015-Mar-03 16:50 090 9 1.0-0.0 Light rain snow.
2015-Mar-03 16:20 090 9 0.9-0.0 Snow rain.